This is the latest recevied weather packets stored in our database for station/object AA6HF. If no packets are shown the sender has not sent any weather packets the latest 10 day(s).
| Time | Temp. | Humidity | Pressure | Rain* | Wind** | Luminosity | Snow |
|---|---|---|---|---|---|---|---|
| 1778058322 | 15° C | 55% | 1012.5 hPa | 0 mm | - | - | - |
| 1778058022 | 15.56° C | 54% | 1012.5 hPa | 0 mm | - | - | - |
| 1778057722 | 15.56° C | 52% | 1012.5 hPa | 0 mm | - | - | - |
| 1778057422 | 15.56° C | 51% | 1012.6 hPa | 0 mm | - | - | - |
| 1778057122 | 15.56° C | 51% | 1012.6 hPa | 0 mm | - | - | - |
| 1778056822 | 15.56° C | 51% | 1012.6 hPa | 0 mm | - | - | - |
| 1778056522 | 15.56° C | 52% | 1012.6 hPa | 0 mm | - | - | - |
| 1778056222 | 15.56° C | 51% | 1012.6 hPa | 0 mm | - | - | - |
| 1778055922 | 16.11° C | 51% | 1012.6 hPa | 0 mm | - | - | - |
| 1778055622 | 16.11° C | 51% | 1012.6 hPa | 0 mm | - | - | - |
| 1778055322 | 15.56° C | 52% | 1012.6 hPa | 0 mm | - | - | - |
| 1778055022 | 15.56° C | 53% | 1012.6 hPa | 0 mm | - | - | - |
| 1778054722 | 15.56° C | 54% | 1012.6 hPa | 0 mm | - | - | - |
| 1778054422 | 15.56° C | 53% | 1012.6 hPa | 0 mm | - | - | - |
| 1778054122 | 16.11° C | 53% | 1012.6 hPa | 0 mm | - | - | - |
| 1778053822 | 16.11° C | 50% | 1012.7 hPa | 0 mm | - | - | - |
| 1778053522 | 16.67° C | 50% | 1012.7 hPa | 0 mm | - | - | - |
| 1778053222 | 16.11° C | 51% | 1012.6 hPa | 0 mm | - | - | - |
| 1778052922 | 16.11° C | 52% | 1012.6 hPa | 0 mm | - | - | - |
| 1778052622 | 16.11° C | 52% | 1012.5 hPa | 0 mm | - | - | - |
| 1778052322 | 16.11° C | 51% | 1012.5 hPa | 0 mm | - | - | - |
| 1778052022 | 16.11° C | 52% | 1012.5 hPa | 0 mm | - | - | - |
| 1778051722 | 16.11° C | 55% | 1012.5 hPa | 0 mm | - | - | - |
| 1778051423 | 16.11° C | 55% | 1012.4 hPa | 0 mm | - | - | - |
| 1778051123 | 16.67° C | 51% | 1012.3 hPa | 0 mm | - | - | - |
* Rain latest hour (hover to see other rain measurements)
** Current wind speed in m/s (hover to see current wind gust speed)